TimeHST,TemperatureF,Dew PointF,Humidity,Sea Level PressureIn,VisibilityMPH,Wind Direction,Wind SpeedMPH,Gust SpeedMPH,PrecipitationIn,Events,Conditions,WindDirDegrees,DateUTC
12:19 AM,66.2,62.6,88,30.17,10.0,WSW,5.8,-,N/A,,Mostly Cloudy,250,2012-03-31 10:19:00
12:26 AM,66.2,62.6,88,30.17,10.0,WSW,5.8,-,N/A,,Mostly Cloudy,240,2012-03-31 10:26:00
12:44 AM,66.2,62.6,88,30.17,10.0,SW,3.5,-,N/A,,Mostly Cloudy,220,2012-03-31 10:44:00
12:53 AM,66.9,62.1,84,30.16,10.0,SW,4.6,-,N/A,,Mostly Cloudy,220,2012-03-31 10:53:00
1:53 AM,64.9,60.1,84,30.15,10.0,WSW,6.9,-,0.00,,Partly Cloudy,240,2012-03-31 11:53:00
2:53 AM,64.0,59.0,84,30.13,10.0,WSW,5.8,-,N/A,,Scattered Clouds,240,2012-03-31 12:53:00
3:53 AM,63.0,57.9,84,30.12,10.0,SW,5.8,-,N/A,,Partly Cloudy,230,2012-03-31 13:53:00
4:53 AM,63.0,57.9,84,30.13,10.0,SW,5.8,-,N/A,,Partly Cloudy,230,2012-03-31 14:53:00
5:53 AM,63.0,57.0,81,30.14,10.0,WSW,8.1,-,N/A,,Scattered Clouds,240,2012-03-31 15:53:00
6:53 AM,63.0,55.9,78,30.15,10.0,WSW,8.1,-,N/A,,Mostly Cloudy,240,2012-03-31 16:53:00
7:53 AM,68.0,55.9,65,30.17,10.0,WSW,4.6,-,N/A,,Mostly Cloudy,240,2012-03-31 17:53:00
8:53 AM,73.9,59.0,59,30.17,10.0,WSW,4.6,-,N/A,,Mostly Cloudy,240,2012-03-31 18:53:00
9:53 AM,77.0,60.1,56,30.17,10.0,South,5.8,-,N/A,,Mostly Cloudy,180,2012-03-31 19:53:00
10:53 AM,75.0,61.0,62,30.16,10.0,East,3.5,-,N/A,,Overcast,90,2012-03-31 20:53:00
11:43 AM,75.2,62.6,65,30.15,10.0,SE,5.8,-,0.00,,Overcast,130,2012-03-31 21:43:00
11:53 AM,73.9,64.9,73,30.14,10.0,ESE,12.7,17.3,0.00,,Overcast,110,2012-03-31 21:53:00
12:17 PM,77.0,64.4,65,30.13,10.0,SE,9.2,-,N/A,,Overcast,140,2012-03-31 22:17:00
12:53 PM,75.9,62.1,62,30.12,10.0,South,5.8,-,N/A,,Overcast,180,2012-03-31 22:53:00
1:53 PM,73.9,64.0,71,30.11,9.0,East,12.7,18.4,0.00,,Overcast,100,2012-03-31 23:53:00
2:02 PM,69.8,66.2,88,30.11,1.8,ESE,10.4,-,0.02,Rain,Light Rain,120,2012-04-01 00:02:00
2:13 PM,69.8,66.2,88,30.10,2.0,SE,9.2,-,0.04,Rain,Light Rain,130,2012-04-01 00:13:00
2:29 PM,71.6,68.0,88,30.10,3.0,SSW,3.5,-,0.04,Rain,Light Rain,210,2012-04-01 00:29:00
2:53 PM,71.1,66.9,87,30.09,2.0,SE,5.8,-,0.04,Rain,Light Rain,140,2012-04-01 00:53:00
3:12 PM,69.8,66.2,88,30.09,1.8,Calm,Calm,-,0.02,Rain,Rain,0,2012-04-01 01:12:00
3:26 PM,69.8,68.0,94,30.09,2.0,Calm,Calm,-,0.05,Rain,Light Rain,0,2012-04-01 01:26:00
3:40 PM,69.8,66.2,88,30.09,2.0,SSE,10.4,-,0.06,Rain,Light Rain,150,2012-04-01 01:40:00
3:53 PM,70.0,66.9,90,30.09,2.5,SE,3.5,-,0.06,Rain,Light Rain,140,2012-04-01 01:53:00
4:03 PM,69.8,66.2,88,30.09,2.5,Calm,Calm,-,0.00,Rain,Light Rain,0,2012-04-01 02:03:00
4:15 PM,69.8,66.2,88,30.09,10.0,South,3.5,-,0.00,,Overcast,190,2012-04-01 02:15:00
4:37 PM,69.8,66.2,88,30.09,6.0,SSW,3.5,-,0.01,Rain,Light Rain,210,2012-04-01 02:37:00
4:51 PM,69.8,66.2,88,30.09,2.5,Calm,Calm,-,0.02,Rain,Light Rain,0,2012-04-01 02:51:00
4:53 PM,70.0,68.0,93,30.09,2.5,Calm,Calm,-,0.02,Rain,Light Rain,0,2012-04-01 02:53:00
5:00 PM,69.8,66.2,88,30.09,-9999.0,WSW,4.6,-,0.01,Rain,Light Rain,240,2012-04-01 03:00:00
5:10 PM,69.8,66.2,88,30.10,2.5,South,3.5,-,0.01,Rain,Light Rain,190,2012-04-01 03:10:00
5:17 PM,69.8,66.2,88,30.10,2.5,South,3.5,-,0.01,Rain,Light Rain,180,2012-04-01 03:17:00
5:48 PM,69.8,66.2,88,30.10,2.5,SW,3.5,-,0.03,Rain,Light Rain,220,2012-04-01 03:48:00
5:53 PM,69.1,66.9,93,30.10,2.5,SW,4.6,-,0.03,Rain,Light Rain,230,2012-04-01 03:53:00
5:58 PM,69.8,66.2,88,30.11,4.0,WSW,5.8,-,0.01,Rain,Light Rain,240,2012-04-01 03:58:00
6:10 PM,69.8,66.2,88,30.12,2.5,SW,3.5,-,0.01,Rain,Light Rain,220,2012-04-01 04:10:00
6:28 PM,69.8,66.2,88,30.12,2.5,WSW,4.6,-,0.02,Rain,Light Rain,240,2012-04-01 04:28:00
6:40 PM,69.8,66.2,88,30.12,2.5,SW,4.6,-,0.03,Rain,Light Rain,230,2012-04-01 04:40:00
6:53 PM,69.1,66.9,93,30.12,2.5,WSW,6.9,-,0.03,Rain,Light Rain,240,2012-04-01 04:53:00
7:00 PM,69.8,66.2,88,30.13,7.0,WSW,5.8,-,0.00,Rain,Light Rain,250,2012-04-01 05:00:00
7:53 PM,69.1,66.9,93,30.14,3.0,WSW,5.8,-,0.02,,Overcast,240,2012-04-01 05:53:00
8:53 PM,69.1,66.9,93,30.16,6.0,SW,3.5,-,0.02,Rain,Light Rain,220,2012-04-01 06:53:00
9:24 PM,68.0,66.2,94,30.17,10.0,WSW,5.8,-,0.01,,Overcast,250,2012-04-01 07:24:00
9:32 PM,68.0,66.2,94,30.17,9.0,WSW,3.5,-,0.01,Rain,Light Rain,240,2012-04-01 07:32:00
9:53 PM,68.0,66.9,96,30.17,8.0,SW,3.5,-,0.01,Rain,Light Rain,230,2012-04-01 07:53:00
10:34 PM,68.0,66.2,94,30.18,2.5,WSW,3.5,-,0.09,Rain,Heavy Rain,240,2012-04-01 08:34:00
10:45 PM,68.0,66.2,94,30.19,4.0,WSW,5.8,-,0.14,Rain,Light Rain,240,2012-04-01 08:45:00
10:53 PM,68.0,66.0,93,30.18,5.0,SSW,5.8,-,0.15,Rain,Light Rain,210,2012-04-01 08:53:00
11:11 PM,68.0,66.2,94,30.18,6.0,SW,3.5,-,0.01,Rain,Light Rain,220,2012-04-01 09:11:00
11:53 PM,68.0,66.9,96,30.17,4.0,WSW,4.6,-,0.03,Rain,Light Rain,240,2012-04-01 09:53:00